Tracking 19562 objects as of 24-Mar-2019
HD Live streaming from Space Station
objects crossing your sky now

COSMOS 2063

Track COSMOS 2063 now!
COSMOS 2063 is classified as:


NORAD ID: 20536
Int'l Code: 1990-026A
Perigee: 4,367.2 km
Apogee: 36,178.9 km
Inclination: 67.6 °
Period: 721.4 minutes
Semi major axis: 26644 km
RCS: 5.105 m2 (large)
Launch date: March 27, 1990
Source: Commonwealth of Independent States (former USSR) (CIS)
Launch site: PLESETSK MISSILE AND SPACE COMPLEX (PKMTR)
aabbcc
Your satellite tracking list
Your tracking list is empty




NASA's NSSDC Master Catalog

Two Line Element Set (TLE):
1 20536U 90026A   19082.79910109 -.00000500  00000-0  00000+0 0  9994
2 20536  67.5557 336.7038 5969767 170.6349 209.4178  1.99619300211522
Source of the keplerian elements: AFSPC